Effective Sunday, March 17, 2024, the National Weather Service National Data Buoy Center will discontinue its Dial-A-Buoy Interactive Voice Response system. For more information, see Service Change Notice 24-06 (PDF).

Station DISW3 - Devils Island, WI Image indicating link to RSS feed of recent meteorological observations for station DISW3


Conditions at DISW3 as of
(7:00 am CST)
1300 GMT on 03/03/2024:
     

Click on the graph icon in the table below to see a time series plot of the last five days of that observation.

5-day plot - Wind Direction Wind Direction (WDIR):ENE ( 60 deg true )
5-day plot - Wind Speed Wind Speed (WSPD):12.4 m/s
5-day plot - Wind Gust Wind Gust (GST):13.4 m/s
5-day plot - Atmospheric Pressure Atmospheric Pressure (PRES):1007.5 mb
5-day plot - Pressure Tendency Pressure Tendency (PTDY): -1.5 mb ( Falling )
5-day plot - Air Temperature Air Temperature (ATMP): 2.4 °C
5-day plot - Dew Point Dew Point (DEWP): 2.3 °C
5-day plot - Wind Chill Wind Chill (CHILL): -4.5 °C
5-day plot - Wind Speed at 10 Meters Wind Speed at 10 meters (WSPD10M): 11 m/s
5-day plot - Wind Speed at 20 Meters Wind Speed at 20 meters (WSPD20M): 12 m/s
5-day plot -  Wind Speed, Wind Gust and Atmospheric Pressure Combined plot of Wind Speed, Gust, and Air Pressure
Continuous Winds
TIME
(CST)
5-day plot - Wind Direction WDIR 5-day plot - Wind Speed WSPD
7:00 amENE ( 62 deg ) 12.9 m/s
6:50 amENE ( 60 deg ) 12.4 m/s
6:40 amENE ( 60 deg ) 12.9 m/s
6:30 amENE ( 61 deg ) 12.4 m/s
6:20 amENE ( 61 deg ) 11.3 m/s
6:10 amENE ( 60 deg ) 11.3 m/s
 
Peak gust during the measurement hour
TIME
(CST)
5-day plot - Gust Direction GDR 5-day plot - Gust Speed GST
6:53 amENE ( 60 deg ) 14.4 m/s
Previous observations
TIME
(CST)
5-day plot - Wind Direction
WDIR
 
5-day plot - Wind Speed
WSPD
m/s
5-day plot - Wind Gust
GST
m/s
5-day plot - Wave Height
WVHT
m
5-day plot - Dominant Wave Period
DPD
sec
5-day plot - Average Wave Period
APD
sec
5-day plot - Mean Wave Direction
MWD
 
5-day plot - Atmospheric Pressure
PRES
mb
5-day plot - Pressure Tendency
PTDY
mb
5-day plot - Air Temperature
ATMP
°C
5-day plot - Water Temperature
WTMP
°C
5-day plot - Dew Point
DEWP
°C
5-day plot - Salinity
SAL
psu
5-day plot - Visibility
VIS
km
5-day plot - Tide (above MLLW)
TIDE
m
2024-03-03 06:00 amENE 12 13----1008.4 -1.1 2.4- 2.2---
2024-03-03 05:00 amENE 10 13----1008.8 -1.5 2.4- 2.3---
2024-03-03 04:00 amENE 11 13----1009.0 -2.0 2.9- 2.2---
2024-03-03 03:00 amENE 12 13----1009.5 -2.1 2.7- 2.3---
2024-03-03 02:00 amENE 10 11----1010.3 -1.7 2.7- 2.2---
2024-03-03 01:00 amENE 11 12----1011.0 -0.9 2.7- 2.1---
2024-03-03 12:00 amENE 10 11----1011.6 +0.0 2.4- 1.9---
2024-03-02 11:00 pmENE 11 13----1012.0 +0.0 2.4- 1.7---
2024-03-02 10:00 pmENE 13 14----1011.9 +0.0 2.6- 1.6---
2024-03-02 09:00 pmENE 13 16----1011.8 -0.3 2.5- 1.4---
2024-03-02 08:00 pmENE 12 14----1012.0 -0.4 2.5- 1.5---
2024-03-02 07:00 pmENE 11 13----1012.1 -0.3 2.4- 1.4---
2024-03-02 06:00 pmENE 9 11----1012.1 -0.5 2.3- 1.1---
2024-03-02 05:00 pmENE 9 10----1012.4 +0.0 2.3- 0.8---
2024-03-02 04:00 pmENE 10 11----1012.4 +0.0 2.3- 1.2---
2024-03-02 03:00 pmENE 7 8----1012.6 -0.5 2.4- 1.1---
2024-03-02 02:00 pmENE 7 7----1012.4 -0.9 2.5- 1.1---
2024-03-02 01:00 pm E 5 5----1012.6 -0.8 3.5- 0.5---
2024-03-02 12:00 pmENE 2 3----1013.1 +0.3 3.3- 0.8---
2024-03-02 11:00 amNNW 3 3----1013.3 +0.9 3.2- 0.8---
2024-03-02 10:00 amWSW 4 5----1013.4 +1.0 5.0- 0.2---
2024-03-02 09:00 am S 2 3----1012.8 +0.5 5.5- 0.2---
2024-03-02 08:00 am S 3 4----1012.4 +0.5 5.2- 0.4---
2024-03-02 07:00 amSSW 5 5----1012.4 +1.3 4.4- 0.6---